When you browse on this site, cookies collect data to enhance your experience and personalize the content and advertising you see.
Visit our Privacy Policy to learn more. By continuing to use the site, you agree to this use of cookies and data.

Hourly Weather Kulachiha

Today, 12 July, Sunday

Time Temperature Precipitation Wind Pressure Humidity
00:00 +14°C° 0 mm 2 mps 748 mmHg 85%
01:00 +13°C° 0 mm 2 mps 748 mmHg 86%
02:00 +12°C° 0 mm 2 mps 749 mmHg 86%
03:00 +13°C° 0 mm 2 mps 749 mmHg 86%
04:00 +13°C° 0 mm 1 mps 749 mmHg 86%
05:00 +14°C° 0 mm 1 mps 749 mmHg 86%
06:00 +14°C° 0 mm 1 mps 749 mmHg 82%
07:00 +15°C° 0 mm 1 mps 750 mmHg 78%
08:00 +16°C° 0 mm 1 mps 750 mmHg 76%
09:00 +15°C° 0.9 mm 1 mps 750 mmHg 82%
10:00 +15°C° 0.9 mm 1 mps 750 mmHg 88%
11:00 +14°C° 0.9 mm 1 mps 750 mmHg 94%
12:00 +14°C° 1.3 mm 1 mps 750 mmHg 94%
13:00 +14°C° 1.3 mm 1 mps 750 mmHg 94%
14:00 +14°C° 1.3 mm 1 mps 750 mmHg 95%
15:00 +14°C° 0.1 mm 1 mps 749 mmHg 95%
16:00 +14°C° 0.1 mm 1 mps 749 mmHg 95%
17:00 +14°C° 0.1 mm 1 mps 749 mmHg 96%
18:00 +14°C° 0 mm 1 mps 749 mmHg 96%
19:00 +14°C° 0 mm 1 mps 749 mmHg 96%
20:00 +13°C° 0 mm 1 mps 749 mmHg 97%
21:00 +13°C° 0 mm 1 mps 749 mmHg 97%
22:00 +13°C° 0 mm 1 mps 748 mmHg 97%
23:00 +13°C° 0 mm 1 mps 748 mmHg 97%

Tomorrow, 13 July, Monday

Time Temperature Precipitation Wind Pressure Humidity
00:00 +13°C° 0 mm 1 mps 748 mmHg 97%
01:00 +13°C° 0 mm 1 mps 748 mmHg 97%
02:00 +12°C° 0 mm 1 mps 748 mmHg 97%
03:00 +13°C° 0.1 mm 1 mps 748 mmHg 97%
04:00 +13°C° 0.1 mm 2 mps 747 mmHg 97%
05:00 +13°C° 0.1 mm 2 mps 747 mmHg 97%
06:00 +13°C° 0 mm 2 mps 747 mmHg 96%
07:00 +14°C° 0 mm 2 mps 747 mmHg 94%
08:00 +14°C° 0 mm 2 mps 748 mmHg 93%
09:00 +15°C° 0 mm 2 mps 747 mmHg 91%
10:00 +15°C° 0 mm 1 mps 747 mmHg 89%
11:00 +15°C° 0 mm 1 mps 747 mmHg 87%
12:00 +15°C° 0.1 mm 1 mps 747 mmHg 88%
13:00 +15°C° 0.1 mm 2 mps 747 mmHg 88%
14:00 +15°C° 0.1 mm 2 mps 747 mmHg 89%
15:00 +15°C° 0 mm 2 mps 746 mmHg 89%
16:00 +15°C° 0 mm 1 mps 746 mmHg 89%
17:00 +15°C° 0 mm 1 mps 746 mmHg 89%
18:00 +15°C° 0 mm 1 mps 746 mmHg 89%
19:00 +15°C° 0 mm 1 mps 746 mmHg 89%
20:00 +14°C° 0 mm 1 mps 746 mmHg 89%
21:00 +14°C° 0 mm 1 mps 746 mmHg 90%
22:00 +14°C° 0 mm 1 mps 745 mmHg 90%
23:00 +14°C° 0 mm 1 mps 745 mmHg 91%

Day after tomorrow, 14 July, Tuesday

Time Temperature Precipitation Wind Pressure Humidity
00:00 +14°C° 0 mm 1 mps 745 mmHg 91%
01:00 +14°C° 0 mm 2 mps 746 mmHg 92%
02:00 +14°C° 0 mm 2 mps 746 mmHg 92%
03:00 +14°C° 0 mm 2 mps 745 mmHg 92%
04:00 +14°C° 0 mm 2 mps 745 mmHg 91%
05:00 +14°C° 0 mm 2 mps 745 mmHg 91%
06:00 +15°C° 0 mm 2 mps 745 mmHg 85%
07:00 +16°C° 0 mm 3 mps 745 mmHg 80%
08:00 +17°C° 0 mm 3 mps 745 mmHg 74%
09:00 +19°C° 0 mm 4 mps 745 mmHg 69%
10:00 +20°C° 0 mm 4 mps 745 mmHg 63%
11:00 +21°C° 0 mm 4 mps 745 mmHg 58%
12:00 +21°C° 0 mm 4 mps 745 mmHg 58%
13:00 +22°C° 0 mm 4 mps 745 mmHg 58%
14:00 +22°C° 0 mm 4 mps 744 mmHg 57%
15:00 +22°C° 0 mm 3 mps 744 mmHg 60%
16:00 +21°C° 0 mm 3 mps 744 mmHg 64%
17:00 +21°C° 0 mm 3 mps 743 mmHg 67%
18:00 +20°C° 0 mm 3 mps 743 mmHg 71%
19:00 +19°C° 0 mm 3 mps 743 mmHg 75%
20:00 +18°C° 0 mm 3 mps 743 mmHg 79%
21:00 +18°C° 0 mm 3 mps 742 mmHg 79%
22:00 +17°C° 0 mm 3 mps 742 mmHg 79%
23:00 +17°C° 0 mm 4 mps 741 mmHg 79%

15 July, Wednesday

Time Temperature Precipitation Wind Pressure Humidity
00:00 +15°C° 0.8 mm 4 mps 741 mmHg 81%
01:00 +15°C° 0.8 mm 5 mps 741 mmHg 83%
02:00 +14°C° 0.8 mm 5 mps 741 mmHg 86%
03:00 +13°C° 1.9 mm 5 mps 740 mmHg 89%
04:00 +13°C° 1.9 mm 5 mps 740 mmHg 93%
05:00 +12°C° 1.9 mm 5 mps 740 mmHg 96%
06:00 +12°C° 3.3 mm 5 mps 740 mmHg 96%
07:00 +11°C° 3.3 mm 6 mps 740 mmHg 97%
08:00 +11°C° 3.3 mm 6 mps 740 mmHg 97%
09:00 +11°C° 0.9 mm 6 mps 740 mmHg 97%
10:00 +11°C° 0.9 mm 6 mps 740 mmHg 97%
11:00 +13°C° 0.9 mm 6 mps 740 mmHg 97%
12:00 +13°C° 0.4 mm 5 mps 740 mmHg 96%
13:00 +13°C° 0.4 mm 5 mps 740 mmHg 95%
14:00 +14°C° 0.4 mm 5 mps 740 mmHg 95%
15:00 +14°C° 0.5 mm 5 mps 740 mmHg 95%
16:00 +14°C° 0.5 mm 5 mps 740 mmHg 96%
17:00 +14°C° 0.5 mm 5 mps 739 mmHg 96%
18:00 +14°C° 0.2 mm 5 mps 739 mmHg 96%
19:00 +14°C° 0.2 mm 5 mps 739 mmHg 96%
20:00 +14°C° 0.2 mm 5 mps 739 mmHg 96%
21:00 +14°C° 0.2 mm 4 mps 739 mmHg 97%
22:00 +14°C° 0.2 mm 4 mps 739 mmHg 97%
23:00 +14°C° 0.2 mm 4 mps 739 mmHg 98%

16 July, Thursday

Time Temperature Precipitation Wind Pressure Humidity
00:00 +14°C° 0.5 mm 4 mps 739 mmHg 98%
01:00 +14°C° 0.5 mm 3 mps 739 mmHg 98%
02:00 +14°C° 0.5 mm 3 mps 738 mmHg 98%
03:00 +14°C° 0.6 mm 3 mps 738 mmHg 98%
04:00 +14°C° 0.6 mm 3 mps 738 mmHg 98%
05:00 +14°C° 0.6 mm 3 mps 738 mmHg 98%
06:00 +16°C° 0.3 mm 3 mps 738 mmHg 97%
07:00 +16°C° 0.3 mm 3 mps 738 mmHg 97%
08:00 +16°C° 0.3 mm 3 mps 738 mmHg 96%
09:00 +15°C° 0.2 mm 4 mps 739 mmHg 94%
10:00 +15°C° 0.2 mm 4 mps 739 mmHg 92%
11:00 +17°C° 0.2 mm 4 mps 739 mmHg 90%
12:00 +17°C° 0.1 mm 4 mps 739 mmHg 89%
13:00 +15°C° 0.1 mm 4 mps 739 mmHg 89%
14:00 +15°C° 0.1 mm 4 mps 740 mmHg 88%
15:00 +15°C° 0 mm 4 mps 740 mmHg 90%
16:00 +14°C° 0 mm 4 mps 740 mmHg 91%
17:00 +14°C° 0 mm 4 mps 740 mmHg 93%
18:00 +13°C° 0 mm 4 mps 740 mmHg 93%
19:00 +13°C° 0 mm 3 mps 740 mmHg 93%
20:00 +13°C° 0 mm 3 mps 740 mmHg 93%
21:00 +13°C° 0 mm 3 mps 740 mmHg 93%
22:00 +12°C° 0 mm 3 mps 740 mmHg 94%
23:00 +12°C° 0 mm 3 mps 740 mmHg 95%

17 July, Friday

Time Temperature Precipitation Wind Pressure Humidity
00:00 +12°C° 0.1 mm 3 mps 740 mmHg 95%
01:00 +12°C° 0.1 mm 3 mps 741 mmHg 96%
02:00 +12°C° 0.1 mm 3 mps 741 mmHg 96%
03:00 +11°C° 0.1 mm 3 mps 741 mmHg 97%
04:00 +11°C° 0.1 mm 3 mps 741 mmHg 97%
05:00 +11°C° 0.1 mm 3 mps 741 mmHg 98%
06:00 +11°C° 0.1 mm 3 mps 741 mmHg 97%
07:00 +11°C° 0.1 mm 3 mps 741 mmHg 97%
08:00 +12°C° 0.1 mm 3 mps 741 mmHg 97%
09:00 +12°C° 0.1 mm 3 mps 742 mmHg 97%
10:00 +12°C° 0.1 mm 3 mps 742 mmHg 96%
11:00 +13°C° 0.1 mm 3 mps 742 mmHg 95%
12:00 +13°C° 0 mm 3 mps 743 mmHg 94%
13:00 +13°C° 0 mm 3 mps 743 mmHg 93%
14:00 +14°C° 0 mm 3 mps 743 mmHg 92%
15:00 +14°C° 0 mm 3 mps 743 mmHg 90%
16:00 +15°C° 0 mm 2 mps 743 mmHg 88%
17:00 +16°C° 0 mm 2 mps 744 mmHg 86%
18:00 +15°C° 0 mm 2 mps 744 mmHg 88%
19:00 +15°C° 0 mm 2 mps 744 mmHg 90%
20:00 +14°C° 0 mm 1 mps 744 mmHg 91%
21:00 +14°C° 0 mm 1 mps 744 mmHg 93%
22:00 +13°C° 0 mm 1 mps 744 mmHg 94%
23:00 +13°C° 0 mm 1 mps 745 mmHg 95%
Show more